Regional Weather Roundup
Issued by NWS Kansas City/Pleasant Hill, MO

Home | Current Version | Previous Version | Graphics & Text | Print | Product List | Glossary Off
Versions: 1 2 3 4 5 6 7 8 9 10 11 12 13 14 15 16 17 18 19 20 21 22 23 24 25 26 27 28 29 30 31 32 33 34 35 36 37 38 39 40 41 42 43 44 45 46 47 48 49 50

000
ASUS43 KEAX 021010
RWREAX

WEATHER ROUNDUP FOR EASTERN KANSAS AND NORTHWEST MISSOURI
NATIONAL WEATHER SERVICE KANSAS CITY/PLEASANT HILL MO
500 AM CDT THU APR 02 2015

KSZ040-057-103>105-MOZ028-029-037-043-021100-
...KANSAS CITY METROPOLITAN AREA...

CITY           SKY/WX    TMP DP  RH WIND       PRES   REMARKS
K.C. INTL      LGT RAIN  57  54  89 NE16      29.70S
K.C. DOWNTOWN  TSTM      58  54  86 NE18G26   29.70S FOG
LEES SUMMIT    TSTM      58  56  93 NE14G29   29.70R FOG
OLATHE - IXD   TSTM      57  55  93 N24G43    29.70R FOG
OLATHE - OJC   TSTM      58  56  93 N21G31    29.68R FOG
LAWRENCE       TSTM      57  54  89 N16G23    29.72R FOG

$$

MOZ001>008-011>017-020>025-030>033-038>040-044>046-053-054-021100-
...NORTHERN AND CENTRAL MISSOURI...

CITY           SKY/WX    TMP DP  RH WIND       PRES   REMARKS
ST. JOSEPH     RAIN      56  54  93 N9        29.73R FOG
MOSBY          RAIN      57  54  88 NE8       29.73R
WARRENSBURG    DRIZZLE   63  57  82 CALM      29.70S
WHITEMAN AFB   LGT RAIN  63  59  86 NW8       29.70R
CLINTON        PTCLDY    63  61  94 S9        29.65R
SEDALIA        NOT AVBL
WARSAW         NOT AVBL
MARSHALL       RAIN      63  59  88 N7        29.72S
CHILLICOTHE      N/A     59  54  83 VRB5      29.69F
KIRKSVILLE     CLOUDY    59  57  93 NW12      29.68R

$$

MOZ041-047>049-056>058-063>065-088>090-097-021100-
...EASTERN AND SOUTHERN MISSOURI...

CITY           SKY/WX    TMP DP  RH WIND       PRES   REMARKS
ST. LOUIS INTL PTCLDY    65  55  70 S13       29.73F
SPIRIT OF STL  PTCLDY    64  55  72 S12G23    29.71F
COLUMBIA       MOCLDY    61  56  83 S15G23    29.65F
JEFFERSON CITY PTCLDY    62  56  80 SE9       29.66F
MEXICO         CLOUDY    61  59  94 S17       29.64F
ROLLA          CLEAR     61  56  83 S17       29.70F
LEBANON        PTCLDY    61  57  88 S15       29.71F
OSAGE BEACH    PTCLDY    61  55  82 S12       29.68F
SPRINGFIELD    PTCLDY    60  57  89 S17       29.71S
BRANSON        PTCLDY    64  57  77 S10       29.77F
NEVADA         PTCLDY    64  61  88 S21G28    29.64F
JOPLIN         PTCLDY    66  60  81 S20       29.68F
WEST PLAINS    CLOUDY    59  56  89 S10       29.81F

$$

IAZ060-094-KSZ022-034>040-054-083-096-NEZ052-066-093-021100-
...KANSAS...SOUTHEAST NEBRASKA AND IOWA...

CITY           SKY/WX    TMP DP  RH WIND       PRES   REMARKS
TOPEKA         TSTM      57  55  93 NE15      29.68F
MANHATTAN      CLOUDY    57  55  93 N8        29.76R
EMPORIA        TSTM      58  54  86 N15       29.66R FOG
CHANUTE        CLOUDY    68  61  78 SW21G31   29.59F
WICHITA        MOCLDY    60  53  77 N18G29    29.71R
OMAHA          CLOUDY    54  51  90 NW7       29.75R
LINCOLN        CLOUDY    52  42  69 N12       29.78R
FALLS CITY     LGT RAIN  56  53  90 NE9       29.74R
LAMONI         LGT RAIN  57  54  89 N12       29.70R
DES MOINES     LGT RAIN  55  49  80 NE12      29.70F

$$




USA.gov is the U.S. government's official web portal to all federal, state and local government web resources and services.